Location: Celina Division
(33.3022°N, 96.7580°W)
Time: 11:22:02
(UTC+00:00)

NOAA 12 - Pass Details

Date: 08 December 2021
Orbit: 795 x 816 km, 98.5° (Epoch: 22 January)

Event Time Altitude Azimuth Distance (km) Brightness Sun altitude
Rises 12:28:18 0° 11° (N) 3,313 7.2 -10.5°
Reaches altitude 10° 12:30:38 10° 10° (N) 2,377 6.4 -10.0°
Maximum altitude 12:35:53 80° 284° (WNW) 811 4.0 -9.0°
Drops below altitude 10° 12:41:05 10° 198° (SSW) 2,355 6.6 -8.0°
Sets 12:43:24 0° 197° (SSW) 3,280 7.3 -7.5°
